Change the Weather History Date:

Sunday, March 4, 2012

  Actual Average Record
Temperature  
Mean Temperature 38 °F -  
Max Temperature 43 °F 43 °F 79 °F (1974)
Min Temperature 32 °F 27 °F 8 °F (1943)
Degree Days  
Heating Degree Days 27    
Moisture  
Dew Point 21 °F    
Average Humidity 50    
Maximum Humidity 73    
Minimum Humidity 38    
Precipitation  
Precipitation 0.00 in - - ()
Sea Level Pressure  
Sea Level Pressure 29.75 in    
Wind  
Wind Speed 9 mph (West)    
Max Wind Speed 18 mph    
Max Gust Speed 24 mph    
Visibility 10 miles    
Events      
Averages and records for this station are not official NWS values.
T = Trace of Precipitation, MM = Missing Value Source: NWS Daily Summary

Daily Weather History Graph

Daily Weather History Graph

Search for Another Location

Airport or City:

Trip Planner

Search our weather history database for the weather conditions in past years. The results will help you decide how hot, cold, wet, or windy it might be!

Date:

Astronomy

Mar. 04, 2012 Rise Set
Actual Time 6:35 AM EST 6:02 PM EST
Civil Twilight 6:08 AM EST 6:30 PM EST
Nautical Twilight 5:37 AM EST 7:01 PM EST
Astronomical Twilight 5:05 AM EST 7:33 PM EST
Moon 2:12 PM EST (3/4) 3:54 AM EST (3/4)
Length of Visible Light 12h 21m
Length of Day
11h 27m
Waxing Gibbous, 83% of the Moon is Illuminated
Mar 4
Waxing Gibbous
Mar 8
Full
Mar 14
Last Quarter
Mar 22
New
Mar 30
First Quarter

Hourly Weather History & Observations

Time (EST) Temp. Windchill Dew Point Humidity Pressure Visibility Wind Dir Wind Speed Gust Speed Precip Events Conditions
12:56 AM 42.1 °F 37.1 °F 23.0 °F 47% 29.72 in 10.0 mi WNW 8.1 mph - N/A   Clear
1:56 AM 41.0 °F 36.4 °F 23.0 °F 49% 29.73 in 10.0 mi NW 6.9 mph 16.1 mph N/A   Clear
2:56 AM 39.0 °F 34.0 °F 21.9 °F 50% 29.73 in 10.0 mi NW 6.9 mph - N/A   Clear
3:56 AM 37.0 °F 33.3 °F 21.0 °F 52% 29.72 in 10.0 mi West 4.6 mph - N/A   Clear
4:56 AM 36.0 °F 33.3 °F 21.0 °F 55% 29.72 in 10.0 mi West 3.5 mph - N/A   Clear
5:56 AM 34.0 °F 29.8 °F 21.0 °F 59% 29.73 in 10.0 mi West 4.6 mph - N/A   Clear
6:56 AM 33.1 °F 28.7 °F 21.0 °F 61% 29.73 in 10.0 mi WNW 4.6 mph - N/A   Clear
7:56 AM 35.1 °F 29.3 °F 19.0 °F 52% 29.75 in 10.0 mi WNW 6.9 mph - N/A   Clear
8:56 AM 39.0 °F 34.8 °F 17.1 °F 41% 29.74 in 10.0 mi West 5.8 mph - N/A   Clear
9:56 AM 42.1 °F 35.7 °F 18.0 °F 38% 29.74 in 10.0 mi WSW 11.5 mph 16.1 mph N/A   Mostly Cloudy
10:56 AM 41.0 °F 33.9 °F 17.1 °F 38% 29.72 in 10.0 mi West 12.7 mph - N/A   Mostly Cloudy
11:56 AM 42.1 °F 35.2 °F 19.0 °F 40% 29.72 in 10.0 mi West 12.7 mph - N/A   Overcast
12:56 PM 41.0 °F 33.9 °F 19.0 °F 41% 29.70 in 10.0 mi West 12.7 mph 24.2 mph N/A   Overcast
1:56 PM 41.0 °F 33.1 °F 18.0 °F 40% 29.68 in 10.0 mi WSW 15.0 mph - N/A   Overcast
2:56 PM 42.1 °F 34.5 °F 18.0 °F 38% 29.70 in 10.0 mi West 15.0 mph 21.9 mph N/A   Mostly Cloudy
3:56 PM 43.0 °F 36.4 °F 19.0 °F 38% 29.71 in 10.0 mi WNW 12.7 mph - N/A   Overcast
4:56 PM 41.0 °F 33.9 °F 18.0 °F 40% 29.72 in 10.0 mi West 12.7 mph 21.9 mph N/A   Partly Cloudy
5:56 PM 39.0 °F 31.8 °F 18.0 °F 43% 29.74 in 10.0 mi WNW 11.5 mph - N/A   Scattered Clouds
6:56 PM 36.0 °F 25.6 °F 25.0 °F 64% 29.77 in 10.0 mi WNW 18.4 mph 24.2 mph 0.00 in   Scattered Clouds
7:56 PM 35.1 °F 27.9 °F 24.1 °F 64% 29.79 in 10.0 mi West 9.2 mph - N/A   Mostly Cloudy
8:56 PM 35.1 °F 27.4 °F 24.1 °F 64% 29.82 in 10.0 mi West 10.4 mph - N/A   Partly Cloudy
9:56 PM 34.0 °F 28.0 °F 23.0 °F 64% 29.83 in 10.0 mi West 6.9 mph - N/A   Clear
10:56 PM 33.1 °F 26.1 °F 21.0 °F 61% 29.86 in 10.0 mi West 8.1 mph - N/A   Partly Cloudy
11:56 PM 32.0 °F 26.4 °F 24.1 °F 73% 29.86 in 10.0 mi WNW 5.8 mph - N/A   Mostly Cloudy